User: anonymous   Login
Location: Bangkok
(13.7500°N, 100.5170°E)
Time: 22:31:10
(UTC+07:00)
Language:

Cosmos 1898 Rocket - Orbit

View from above orbital plane
View from above orbital plane
View from above satellite
View from above satellite

Ground track
Ground track

The orbit data is extracted from the following two-line orbital elements,

1 18586U 87098B   16121.14118666  .00000108  00000-0  45384-4 0  9991
2 18586  74.0068 335.8778 0020358 131.9951   6.8845 14.36715835488041
Epoch (UTC): 30 April 2016 03:23:18
Eccentricity: 0.0020358
inclination: 74.0068°
perigee height: 755 km
apogee height: 784 km
right ascension of ascending node: 335.8778°
argument of perigee: 131.9951°
revolutions per day: 14.36715835
mean anomaly at epoch: 6.8845°
orbit number at epoch: 48804

The dashed part of the orbit path shows where the satellite is in the earth's shadow,  

DLR